| time (UTC) | temp C | wind direction | speed KPH | gust KPH | rain 1hr cm | rain 24hr cm | rain mn cm | humidity % | barometer mb |
| 20260507015938 | 12 | 176 | 0.0 | 6.4 | 0.00 | 0.00 | 0.00 | 67 | 1012.7 |
| 20260507015438 | 12 | 176 | 0.0 | 6.4 | 0.00 | 0.00 | 0.00 | 66 | 1012.7 |
| 20260507014938 | 12 | 176 | 0.0 | 6.4 | 0.00 | 0.00 | 0.00 | 66 | 1012.7 |
| 20260507014438 | 13 | 176 | 0.0 | 6.4 | 0.00 | 0.00 | 0.00 | 65 | 1012.7 |
| 20260507013938 | 13 | 176 | 1.6 | 6.4 | 0.00 | 0.00 | 0.00 | 65 | 1012.8 |
| 20260507013438 | 13 | 176 | 0.0 | 6.4 | 0.00 | 0.00 | 0.00 | 64 | 1012.6 |
| 20260507012938 | 13 | 176 | 0.0 | 6.4 | 0.00 | 0.00 | 0.00 | 64 | 1012.8 |
| 20260507012438 | 13 | 176 | 0.0 | 6.4 | 0.00 | 0.00 | 0.00 | 63 | 1012.6 |
| 20260507011939 | 13 | 176 | 1.6 | 6.4 | 0.00 | 0.00 | 0.00 | 63 | 1012.6 |
| 20260507011438 | 13 | 176 | 3.2 | 6.4 | 0.00 | 0.00 | 0.00 | 62 | 1012.6 |
| 20260507010938 | 13 | 176 | 0.0 | 6.4 | 0.00 | 0.00 | 0.00 | 62 | 1012.6 |
| 20260507010438 | 14 | 180 | 1.6 | 3.2 | 0.00 | 0.00 | 0.00 | 62 | 1012.4 |
| 20260507005938 | 14 | 180 | 4.8 | 9.7 | 0.00 | 0.00 | 0.00 | 62 | 1012.4 |
| 20260507005438 | 14 | 180 | 1.6 | 9.7 | 0.00 | 0.00 | 0.00 | 59 | 1012.4 |
| 20260507004938 | 14 | 169 | 3.2 | 9.7 | 0.00 | 0.00 | 0.00 | 62 | 1012.4 |
| 20260507004438 | 14 | 169 | 1.6 | 9.7 | 0.00 | 0.00 | 0.00 | 61 | 1012.4 |
| 20260507003938 | 14 | 169 | 0.0 | 9.7 | 0.00 | 0.00 | 0.00 | 61 | 1012.3 |
| 20260507003438 | 14 | 171 | 0.0 | 9.7 | 0.00 | 0.00 | 0.00 | 60 | 1012.5 |
| 20260507002938 | 14 | 170 | 0.0 | 9.7 | 0.00 | 0.00 | 0.00 | 59 | 1012.5 |
| 20260507002438 | 14 | 170 | 4.8 | 9.7 | 0.00 | 0.00 | 0.00 | 59 | 1012.4 |
| 20260507001938 | 15 | 170 | 3.2 | 9.7 | 0.00 | 0.00 | 0.00 | 59 | 1012.3 |
| 20260507001437 | 15 | 170 | 1.6 | 9.7 | 0.00 | 0.00 | 0.00 | 58 | 1012.4 |
| 20260507000937 | 15 | 170 | 3.2 | 9.7 | 0.00 | 0.00 | 0.00 | 55 | 1012.3 |
| 20260507000437 | 15 | 170 | 0.0 | 9.7 | 0.00 | 0.00 | 0.00 | 58 | 1012.2 |
| 20260506235937 | 15 | 170 | 1.6 | 9.7 | 0.00 | 0.00 | 0.00 | 58 | 1012.1 |
| 20260506235437 | 15 | 169 | 0.0 | 9.7 | 0.00 | 0.00 | 0.00 | 57 | 1012.3 |
| 20260506234937 | 15 | 171 | 1.6 | 9.7 | 0.00 | 0.00 | 0.00 | 57 | 1012.3 |
| 20260506234437 | 15 | 171 | 0.0 | 9.7 | 0.00 | 0.00 | 0.00 | 55 | 1012.2 |
| 20260506233937 | 15 | 170 | 3.2 | 9.7 | 0.00 | 0.00 | 0.00 | 54 | 1012.1 |
| 20260506233437 | 15 | 170 | 0.0 | 9.7 | 0.00 | 0.00 | 0.00 | 55 | 1012.2 |
| 20260506232937 | 15 | 169 | 3.2 | 9.7 | 0.00 | 0.00 | 0.00 | 55 | 1012.3 |
| 20260506232437 | 16 | 169 | 4.8 | 9.7 | 0.00 | 0.00 | 0.00 | 54 | 1012.4 |
| 20260506231937 | 16 | 169 | 3.2 | 9.7 | 0.00 | 0.00 | 0.00 | 55 | 1012.3 |
| 20260506231437 | 16 | 169 | 4.8 | 9.7 | 0.00 | 0.00 | 0.00 | 55 | 1012.3 |
| 20260506230937 | 16 | 169 | 1.6 | 9.7 | 0.00 | 0.00 | 0.00 | 54 | 1012.2 |
| 20260506230437 | 16 | 180 | 4.8 | 6.4 | 0.00 | 0.00 | 0.00 | 51 | 1012.3 |
| 20260506225937 | 16 | 131 | 1.6 | 11.3 | 0.00 | 0.00 | 0.00 | 49 | 1012.2 |
| 20260506225436 | 16 | 132 | 4.8 | 11.3 | 0.00 | 0.00 | 0.00 | 39 | 1012.2 |
| 20260506224937 | 16 | 134 | 1.6 | 11.3 | 0.00 | 0.00 | 0.00 | 38 | 1012.3 |
| 20260506224436 | 16 | 134 | 4.8 | 11.3 | 0.00 | 0.00 | 0.00 | 38 | 1012.4 |
| 20260506223936 | 16 | 259 | 4.8 | 11.3 | 0.00 | 0.00 | 0.00 | 39 | 1012.3 |
| 20260506223436 | 17 | 292 | 0.0 | 11.3 | 0.00 | 0.00 | 0.00 | 38 | 1012.5 |
| 20260506222936 | 17 | 219 | 1.6 | 11.3 | 0.00 | 0.00 | 0.00 | 36 | 1012.6 |
| 20260506222436 | 17 | 6 | 1.6 | 11.3 | 0.00 | 0.00 | 0.00 | 34 | 1012.6 |
| 20260506221936 | 17 | 167 | 4.8 | 11.3 | 0.00 | 0.00 | 0.00 | 35 | 1012.5 |
| 20260506221436 | 17 | 268 | 1.6 | 11.3 | 0.00 | 0.00 | 0.00 | 40 | 1012.6 |
| 20260506220936 | 17 | 273 | 6.4 | 11.3 | 0.00 | 0.00 | 0.00 | 36 | 1012.6 |
| 20260506220436 | 18 | 286 | 3.2 | 11.3 | 0.00 | 0.00 | 0.00 | 39 | 1012.7 |
| 20260506215936 | 18 | 171 | 3.2 | 11.3 | 0.00 | 0.00 | 0.00 | 36 | 1012.7 |
| 20260506215436 | 18 | 310 | 4.8 | 9.7 | 0.00 | 0.00 | 0.00 | 39 | 1012.7 |
| 20260506214936 | 18 | 265 | 4.8 | 9.7 | 0.00 | 0.00 | 0.00 | 36 | 1012.7 |
| 20260506214436 | 18 | 289 | 1.6 | 9.7 | 0.00 | 0.00 | 0.00 | 41 | 1012.7 |
| 20260506213936 | 18 | 289 | 4.8 | 9.7 | 0.00 | 0.00 | 0.00 | 41 | 1012.8 |
| 20260506213436 | 17 | 284 | 4.8 | 9.7 | 0.00 | 0.00 | 0.00 | 40 | 1012.9 |
| 20260506212936 | 17 | 280 | 3.2 | 9.7 | 0.00 | 0.00 | 0.00 | 39 | 1013.0 |
| 20260506212436 | 17 | 313 | 1.6 | 9.7 | 0.00 | 0.00 | 0.00 | 42 | 1012.9 |
| 20260506211936 | 17 | 323 | 3.2 | 9.7 | 0.00 | 0.00 | 0.00 | 40 | 1013.0 |
| 20260506211436 | 17 | 39 | 8.0 | 9.7 | 0.00 | 0.00 | 0.00 | 39 | 1013.0 |
| 20260506210936 | 17 | 258 | 4.8 | 4.8 | 0.00 | 0.00 | 0.00 | 42 | 1013.0 |
| 20260506210436 | 17 | 197 | 1.6 | 4.8 | 0.00 | 0.00 | 0.00 | 41 | 1013.0 |
| 20260506205936 | 17 | 259 | 4.8 | 11.3 | 0.00 | 0.00 | 0.00 | 40 | 1013.2 |
| 20260506205436 | 17 | 107 | 1.6 | 11.3 | 0.00 | 0.00 | 0.00 | 44 | 1013.1 |
| 20260506204936 | 17 | 289 | 3.2 | 11.3 | 0.00 | 0.00 | 0.00 | 44 | 1013.1 |
| 20260506204436 | 17 | 289 | 4.8 | 11.3 | 0.00 | 0.00 | 0.00 | 43 | 1012.9 |
| 20260506203936 | 16 | 274 | 1.6 | 11.3 | 0.00 | 0.00 | 0.00 | 43 | 1013.0 |
| 20260506203436 | 16 | 292 | 1.6 | 11.3 | 0.00 | 0.00 | 0.00 | 44 | 1013.1 |
| 20260506202936 | 16 | 284 | 1.6 | 11.3 | 0.00 | 0.00 | 0.00 | 46 | 1013.0 |
| 20260506202436 | 16 | 284 | 1.6 | 11.3 | 0.00 | 0.00 | 0.00 | 45 | 1013.1 |
| 20260506201936 | 16 | 291 | 3.2 | 11.3 | 0.00 | 0.00 | 0.00 | 46 | 1013.1 |
| 20260506201436 | 16 | 288 | 3.2 | 11.3 | 0.00 | 0.00 | 0.00 | 48 | 1013.1 |
| 20260506200936 | 16 | 1 | 4.8 | 11.3 | 0.00 | 0.00 | 0.00 | 48 | 1013.2 |
| 20260506200436 | 16 | 116 | 1.6 | 11.3 | 0.00 | 0.00 | 0.00 | 46 | 1013.3 |
| 20260506195936 | 15 | 279 | 0.0 | 11.3 | 0.00 | 0.00 | 0.00 | 48 | 1013.2 |
| 20260506195436 | 15 | 263 | 3.2 | 11.3 | 0.00 | 0.00 | 0.00 | 47 | 1013.2 |
| 20260506194935 | 15 | 279 | 3.2 | 11.3 | 0.00 | 0.00 | 0.00 | 47 | 1013.2 |
| 20260506194435 | 15 | 313 | 1.6 | 11.3 | 0.00 | 0.00 | 0.00 | 48 | 1013.2 |
| 20260506193935 | 15 | 295 | 1.6 | 11.3 | 0.00 | 0.00 | 0.00 | 50 | 1013.2 |
| 20260506193435 | 15 | 288 | 0.0 | 11.3 | 0.00 | 0.00 | 0.00 | 48 | 1013.1 |
| 20260506192935 | 15 | 287 | 0.0 | 11.3 | 0.00 | 0.00 | 0.00 | 51 | 1013.2 |
| 20260506192435 | 14 | 279 | 1.6 | 11.3 | 0.00 | 0.00 | 0.00 | 49 | 1013.2 |
| 20260506191935 | 14 | 281 | 4.8 | 11.3 | 0.00 | 0.00 | 0.00 | 51 | 1013.3 |
| 20260506191435 | 14 | 268 | 4.8 | 11.3 | 0.00 | 0.00 | 0.00 | 53 | 1013.4 |
| 20260506190935 | 13 | 70 | 4.8 | 11.3 | 0.00 | 0.00 | 0.00 | 50 | 1013.4 |
| 20260506190435 | 13 | 293 | 1.6 | 4.8 | 0.00 | 0.00 | 0.00 | 55 | 1013.2 |
| 20260506185935 | 13 | 277 | 4.8 | 11.3 | 0.00 | 0.03 | 0.00 | 55 | 1013.4 |
| 20260506185435 | 13 | 270 | 3.2 | 11.3 | 0.00 | 0.03 | 0.00 | 53 | 1013.3 |
| 20260506184935 | 13 | 286 | 4.8 | 11.3 | 0.00 | 0.03 | 0.00 | 55 | 1013.3 |
| 20260506184435 | 12 | 284 | 6.4 | 11.3 | 0.00 | 0.03 | 0.00 | 57 | 1013.4 |
| 20260506183935 | 12 | 283 | 4.8 | 11.3 | 0.00 | 0.03 | 0.00 | 54 | 1013.4 |
| 20260506183435 | 12 | 285 | 4.8 | 11.3 | 0.00 | 0.03 | 0.00 | 58 | 1013.4 |
| 20260506182935 | 12 | 271 | 4.8 | 11.3 | 0.00 | 0.03 | 0.00 | 59 | 1013.5 |
| 20260506182435 | 12 | 287 | 0.0 | 11.3 | 0.00 | 0.03 | 0.00 | 60 | 1013.3 |
| 20260506181935 | 11 | 281 | 4.8 | 11.3 | 0.00 | 0.03 | 0.00 | 60 | 1013.3 |
| 20260506181435 | 11 | 280 | 1.6 | 9.7 | 0.00 | 0.03 | 0.00 | 61 | 1013.3 |
| 20260506180935 | 11 | 280 | 4.8 | 9.7 | 0.00 | 0.03 | 0.00 | 61 | 1013.3 |
| 20260506180434 | 11 | 288 | 4.8 | 9.7 | 0.00 | 0.03 | 0.00 | 59 | 1013.3 |
| 20260506175934 | 10 | 288 | 4.8 | 8.0 | 0.00 | 0.03 | 0.00 | 61 | 1013.3 |
| 20260506175434 | 10 | 309 | 4.8 | 8.0 | 0.00 | 0.03 | 0.00 | 59 | 1013.3 |
| 20260506174935 | 10 | 281 | 4.8 | 8.0 | 0.00 | 0.03 | 0.00 | 60 | 1013.1 |
| 20260506174434 | 10 | 291 | 4.8 | 8.0 | 0.00 | 0.03 | 0.00 | 63 | 1013.1 |
| 20260506173934 | 10 | 295 | 3.2 | 8.0 | 0.00 | 0.03 | 0.00 | 64 | 1013.0 |
| 20260506173434 | 10 | 295 | 3.2 | 8.0 | 0.00 | 0.03 | 0.00 | 65 | 1013.0 |
| 20260506172934 | 9 | 296 | 4.8 | 8.0 | 0.00 | 0.03 | 0.00 | 65 | 1013.0 |
| 20260506172434 | 9 | 284 | 3.2 | 8.0 | 0.00 | 0.03 | 0.00 | 67 | 1013.0 |
| 20260506171934 | 9 | 284 | 3.2 | 8.0 | 0.00 | 0.03 | 0.00 | 66 | 1013.1 |
| 20260506171434 | 9 | 284 | 3.2 | 8.0 | 0.00 | 0.03 | 0.00 | 68 | 1013.0 |
| 20260506170934 | 8 | 284 | 3.2 | 8.0 | 0.00 | 0.03 | 0.00 | 67 | 1012.8 |
| 20260506170434 | 8 | 280 | 3.2 | 6.4 | 0.00 | 0.03 | 0.00 | 68 | 1012.7 |
| 20260506165934 | 8 | 279 | 4.8 | 8.0 | 0.00 | 0.13 | 0.00 | 69 | 1012.8 |
| 20260506165434 | 8 | 279 | 4.8 | 8.0 | 0.00 | 0.13 | 0.00 | 70 | 1012.8 |
| 20260506164934 | 8 | 314 | 4.8 | 8.0 | 0.00 | 0.13 | 0.00 | 70 | 1012.8 |
| 20260506164434 | 8 | 286 | 4.8 | 8.0 | 0.00 | 0.13 | 0.00 | 73 | 1012.7 |
| 20260506163934 | 8 | 286 | 3.2 | 8.0 | 0.00 | 0.13 | 0.00 | 73 | 1012.8 |
| 20260506163434 | 8 | 286 | 1.6 | 8.0 | 0.00 | 0.13 | 0.00 | 74 | 1012.7 |
| 20260506162934 | 8 | 286 | 3.2 | 8.0 | 0.00 | 0.13 | 0.00 | 73 | 1012.6 |
| 20260506162433 | 8 | 286 | 0.0 | 8.0 | 0.00 | 0.13 | 0.00 | 73 | 1012.6 |
| 20260506161933 | 7 | 280 | 4.8 | 8.0 | 0.00 | 0.13 | 0.00 | 70 | 1012.6 |
| 20260506161433 | 7 | 290 | 1.6 | 6.4 | 0.00 | 0.13 | 0.00 | 73 | 1012.5 |
| 20260506160934 | 7 | 286 | 3.2 | 6.4 | 0.00 | 0.13 | 0.00 | 71 | 1012.4 |
| 20260506160433 | 7 | 280 | 1.6 | 6.4 | 0.00 | 0.13 | 0.00 | 74 | 1012.3 |
| 20260506155933 | 7 | 280 | 3.2 | 6.4 | 0.00 | 0.13 | 0.00 | 73 | 1012.5 |
| 20260506155435 | 6 | 298 | 3.2 | 6.4 | 0.00 | 0.13 | 0.00 | 74 | 1012.2 |
| 20260506154933 | 6 | 298 | 0.0 | 6.4 | 0.00 | 0.13 | 0.00 | 71 | 1012.4 |
| 20260506154433 | 6 | 294 | 0.0 | 4.8 | 0.00 | 0.13 | 0.00 | 74 | 1012.2 |
| 20260506153933 | 6 | 294 | 4.8 | 4.8 | 0.00 | 0.13 | 0.00 | 76 | 1012.1 |
| 20260506153433 | 6 | 294 | 3.2 | 4.8 | 0.00 | 0.13 | 0.00 | 78 | 1012.2 |
| 20260506152933 | 5 | 307 | 3.2 | 4.8 | 0.00 | 0.13 | 0.00 | 79 | 1012.2 |
| 20260506152433 | 5 | 307 | 0.0 | 4.8 | 0.00 | 0.13 | 0.00 | 81 | 1012.2 |
| 20260506151933 | 5 | 307 | 1.6 | 3.2 | 0.00 | 0.13 | 0.00 | 83 | 1012.3 |
| 20260506151433 | 5 | 307 | 1.6 | 1.6 | 0.00 | 0.13 | 0.00 | 84 | 1012.1 |
| 20260506150933 | 5 | 307 | 0.0 | 0.0 | 0.00 | 0.13 | 0.00 | 84 | 1012.2 |
| 20260506150433 | 4 | 307 | 0.0 | 0.0 | 0.00 | 0.13 | 0.00 | 84 | 1012.1 |
| 20260506145933 | 4 | 307 | 0.0 | 8.0 | 0.00 | 0.46 | 0.00 | 85 | 1012.2 |
| 20260506145433 | 4 | 307 | 0.0 | 8.0 | 0.00 | 0.46 | 0.00 | 85 | 1012.2 |
| 20260506144933 | 4 | 307 | 0.0 | 8.0 | 0.00 | 0.46 | 0.00 | 86 | 1012.2 |
| 20260506144433 | 3 | 307 | 1.6 | 8.0 | 0.00 | 0.46 | 0.00 | 86 | 1012.1 |
| 20260506143933 | 3 | 307 | 1.6 | 8.0 | 0.00 | 0.46 | 0.00 | 87 | 1012.0 |
| 20260506143433 | 3 | 307 | 0.0 | 8.0 | 0.00 | 0.46 | 0.00 | 86 | 1012.0 |
| 20260506142933 | 3 | 307 | 0.0 | 8.0 | 0.00 | 0.46 | 0.00 | 87 | 1011.9 |
| 20260506142433 | 3 | 307 | 0.0 | 8.0 | 0.00 | 0.46 | 0.00 | 87 | 1012.0 |
| 20260506141932 | 3 | 307 | 0.0 | 8.0 | 0.00 | 0.46 | 0.00 | 87 | 1011.9 |
| 20260506141432 | 2 | 307 | 0.0 | 8.0 | 0.00 | 0.46 | 0.00 | 87 | 1012.0 |
| 20260506140933 | 2 | 307 | 0.0 | 8.0 | 0.00 | 0.46 | 0.00 | 87 | 1011.8 |
| 20260506140432 | 2 | 307 | 0.0 | 8.0 | 0.00 | 0.46 | 0.00 | 87 | 1011.7 |
| 20260506135932 | 2 | 156 | 0.0 | 3.2 | 0.00 | 0.46 | 0.00 | 87 | 1011.7 |
| 20260506135432 | 2 | 156 | 0.0 | 1.6 | 0.00 | 0.46 | 0.00 | 87 | 1011.6 |
| 20260506134932 | 2 | 156 | 0.0 | 1.6 | 0.00 | 0.46 | 0.00 | 87 | 1011.5 |
| 20260506134432 | 2 | 156 | 0.0 | 1.6 | 0.00 | 0.46 | 0.00 | 87 | 1011.6 |
| 20260506133932 | 2 | 156 | 0.0 | 1.6 | 0.00 | 0.46 | 0.00 | 87 | 1011.4 |
| 20260506133432 | 2 | 156 | 0.0 | 1.6 | 0.00 | 0.46 | 0.00 | 87 | 1011.5 |
| 20260506132932 | 2 | 156 | 0.0 | 1.6 | 0.00 | 0.46 | 0.00 | 86 | 1011.3 |
| 20260506132432 | 2 | 156 | 0.0 | 1.6 | 0.00 | 0.46 | 0.00 | 87 | 1011.4 |
| 20260506131932 | 2 | 156 | 0.0 | 1.6 | 0.00 | 0.46 | 0.00 | 87 | 1011.2 |
| 20260506131432 | 2 | 156 | 0.0 | 1.6 | 0.00 | 0.46 | 0.00 | 87 | 1011.3 |
| 20260506130932 | 2 | 156 | 0.0 | 1.6 | 0.00 | 0.46 | 0.00 | 87 | 1011.3 |
| 20260506130432 | 2 | 156 | 0.0 | 0.0 | 0.00 | 0.46 | 0.00 | 87 | 1011.1 |
| 20260506125932 | 2 | 156 | 0.0 | 0.0 | 0.00 | 0.74 | 0.00 | 87 | 1011.1 |
| 20260506125432 | 2 | 156 | 0.0 | 0.0 | 0.00 | 0.74 | 0.00 | 87 | 1011.1 |
| 20260506124933 | 2 | 156 | 0.0 | 0.0 | 0.00 | 0.74 | 0.00 | 87 | 1011.1 |
| 20260506124432 | 2 | 156 | 0.0 | 0.0 | 0.00 | 0.74 | 0.00 | 87 | 1011.1 |
| 20260506123931 | 2 | 156 | 0.0 | 0.0 | 0.00 | 0.74 | 0.00 | 87 | 1011.0 |
| 20260506123431 | 2 | 156 | 0.0 | 0.0 | 0.00 | 0.74 | 0.00 | 87 | 1010.9 |
| 20260506122931 | 2 | 156 | 0.0 | 0.0 | 0.00 | 0.74 | 0.00 | 87 | 1010.9 |
| 20260506122431 | 2 | 156 | 0.0 | 0.0 | 0.00 | 0.74 | 0.00 | 87 | 1011.0 |
| 20260506121931 | 2 | 156 | 0.0 | 0.0 | 0.00 | 0.74 | 0.00 | 87 | 1010.9 |
| 20260506121431 | 2 | 156 | 0.0 | 0.0 | 0.00 | 0.74 | 0.00 | 87 | 1010.9 |
| 20260506120931 | 2 | 156 | 0.0 | 0.0 | 0.00 | 0.74 | 0.00 | 87 | 1010.8 |
| 20260506120431 | 2 | 156 | 0.0 | 0.0 | 0.00 | 0.74 | 0.00 | 87 | 1010.9 |
| 20260506115931 | 2 | 156 | 0.0 | 0.0 | 0.00 | 0.74 | 0.00 | 87 | 1010.8 |
| 20260506115431 | 2 | 156 | 0.0 | 0.0 | 0.00 | 0.74 | 0.00 | 87 | 1010.9 |
| 20260506114931 | 2 | 156 | 0.0 | 0.0 | 0.00 | 0.74 | 0.00 | 87 | 1010.9 |
| 20260506114431 | 2 | 156 | 0.0 | 0.0 | 0.00 | 0.74 | 0.00 | 87 | 1010.9 |
| 20260506113931 | 2 | 156 | 0.0 | 0.0 | 0.00 | 0.74 | 0.00 | 87 | 1010.7 |
| 20260506113431 | 2 | 156 | 0.0 | 0.0 | 0.00 | 0.74 | 0.00 | 87 | 1010.9 |
| 20260506112931 | 2 | 156 | 0.0 | 0.0 | 0.00 | 0.74 | 0.00 | 87 | 1010.7 |
| 20260506112431 | 2 | 156 | 0.0 | 0.0 | 0.00 | 0.74 | 0.00 | 87 | 1010.8 |
| 20260506111931 | 2 | 156 | 0.0 | 0.0 | 0.00 | 0.74 | 0.00 | 87 | 1010.7 |
| 20260506111430 | 2 | 156 | 0.0 | 0.0 | 0.00 | 0.74 | 0.00 | 87 | 1010.7 |
| 20260506110931 | 2 | 156 | 0.0 | 0.0 | 0.00 | 0.74 | 0.00 | 87 | 1010.7 |
| 20260506110430 | 2 | 156 | 0.0 | 0.0 | 0.00 | 0.74 | 0.00 | 87 | 1010.8 |
| 20260506105930 | 2 | 156 | 0.0 | 0.0 | 0.00 | 0.74 | 0.00 | 87 | 1010.7 |
| 20260506105430 | 2 | 156 | 0.0 | 0.0 | 0.00 | 0.74 | 0.00 | 87 | 1010.6 |
| 20260506104930 | 2 | 156 | 0.0 | 0.0 | 0.00 | 0.74 | 0.00 | 87 | 1010.7 |
| 20260506104430 | 2 | 156 | 0.0 | 0.0 | 0.00 | 0.74 | 0.00 | 87 | 1010.5 |
| 20260506103930 | 2 | 156 | 0.0 | 0.0 | 0.00 | 0.74 | 0.00 | 87 | 1010.5 |
| 20260506103430 | 2 | 156 | 0.0 | 0.0 | 0.00 | 0.74 | 0.00 | 87 | 1010.5 |
| 20260506102930 | 2 | 156 | 0.0 | 0.0 | 0.00 | 0.74 | 0.00 | 87 | 1010.6 |
| 20260506102430 | 2 | 156 | 0.0 | 0.0 | 0.00 | 0.74 | 0.00 | 87 | 1010.4 |
| 20260506101930 | 2 | 156 | 0.0 | 0.0 | 0.00 | 0.74 | 0.00 | 87 | 1010.4 |
| 20260506101430 | 2 | 156 | 0.0 | 0.0 | 0.00 | 0.74 | 0.00 | 87 | 1010.4 |
| 20260506100930 | 2 | 156 | 0.0 | 0.0 | 0.00 | 0.74 | 0.00 | 87 | 1010.3 |
| 20260506100430 | 2 | 156 | 0.0 | 0.0 | 0.00 | 0.74 | 0.00 | 87 | 1010.4 |
| 20260506095930 | 2 | 156 | 0.0 | 0.0 | 0.00 | 0.74 | 0.00 | 87 | 1010.4 |
| 20260506095430 | 2 | 156 | 0.0 | 0.0 | 0.00 | 0.74 | 0.00 | 87 | 1010.5 |
| 20260506094930 | 2 | 156 | 0.0 | 0.0 | 0.00 | 0.74 | 0.00 | 87 | 1010.4 |
| 20260506094430 | 2 | 156 | 0.0 | 0.0 | 0.00 | 0.74 | 0.00 | 87 | 1010.4 |
| 20260506093930 | 2 | 156 | 0.0 | 0.0 | 0.00 | 0.74 | 0.00 | 87 | 1010.5 |
| 20260506093430 | 2 | 156 | 0.0 | 0.0 | 0.00 | 0.74 | 0.00 | 87 | 1010.3 |
| 20260506092930 | 2 | 156 | 0.0 | 0.0 | 0.00 | 0.74 | 0.00 | 87 | 1010.4 |
| 20260506092430 | 2 | 156 | 0.0 | 0.0 | 0.00 | 0.74 | 0.00 | 87 | 1010.3 |
| 20260506091929 | 2 | 156 | 0.0 | 0.0 | 0.00 | 0.74 | 0.00 | 87 | 1010.4 |
| 20260506091430 | 2 | 156 | 0.0 | 0.0 | 0.00 | 0.74 | 0.00 | 87 | 1010.3 |
| 20260506090929 | 2 | 156 | 0.0 | 0.0 | 0.00 | 0.74 | 0.00 | 87 | 1010.4 |
| 20260506090429 | 2 | 156 | 0.0 | 0.0 | 0.00 | 0.74 | 0.00 | 87 | 1010.3 |
| 20260506085929 | 2 | 156 | 0.0 | 6.4 | 0.00 | 0.89 | 0.00 | 87 | 1010.4 |
| 20260506085430 | 2 | 156 | 0.0 | 6.4 | 0.00 | 0.89 | 0.00 | 87 | 1010.6 |
| 20260506084929 | 2 | 156 | 0.0 | 6.4 | 0.00 | 0.89 | 0.00 | 87 | 1010.5 |
| 20260506084429 | 2 | 156 | 0.0 | 6.4 | 0.00 | 0.89 | 0.00 | 87 | 1010.6 |
| 20260506083929 | 2 | 156 | 1.6 | 6.4 | 0.00 | 0.89 | 0.00 | 87 | 1010.6 |
| 20260506083429 | 2 | 156 | 0.0 | 6.4 | 0.00 | 0.89 | 0.00 | 87 | 1010.6 |
| 20260506082929 | 2 | 156 | 0.0 | 6.4 | 0.00 | 0.89 | 0.00 | 87 | 1010.7 |
| 20260506082429 | 2 | 156 | 0.0 | 6.4 | 0.00 | 0.89 | 0.00 | 87 | 1010.6 |
| 20260506081929 | 2 | 156 | 1.6 | 6.4 | 0.00 | 0.89 | 0.00 | 87 | 1010.7 |
| 20260506081429 | 2 | 156 | 3.2 | 6.4 | 0.00 | 0.89 | 0.00 | 87 | 1010.8 |
| 20260506080929 | 2 | 156 | 0.0 | 6.4 | 0.00 | 0.89 | 0.00 | 87 | 1010.7 |
| 20260506080429 | 2 | 156 | 0.0 | 6.4 | 0.00 | 0.89 | 0.00 | 87 | 1010.6 |
| 20260506073428 | 2 | 156 | 0.0 | 6.4 | 0.00 | 0.89 | 0.00 | 87 | 1010.5 |
| 20260506072928 | 2 | 156 | 1.6 | 6.4 | 0.00 | 0.89 | 0.00 | 86 | 1010.7 |
| 20260506072428 | 2 | 156 | 1.6 | 6.4 | 0.00 | 0.89 | 0.00 | 87 | 1010.7 |
| 20260506071928 | 2 | 155 | 3.2 | 4.8 | 0.00 | 0.89 | 0.00 | 87 | 1010.8 |
| 20260506071428 | 2 | 155 | 4.8 | 4.8 | 0.00 | 0.89 | 0.00 | 87 | 1010.7 |
| 20260506070928 | 2 | 153 | 1.6 | 4.8 | 0.00 | 0.89 | 0.00 | 87 | 1010.8 |
| 20260506070428 | 2 | 151 | 1.6 | 3.2 | 0.00 | 0.89 | 0.00 | 87 | 1010.7 |
| 20260506062428 | 2 | 147 | 3.2 | 9.7 | 0.00 | 0.91 | 0.89 | 86 | 1010.5 |
| 20260506061928 | 2 | 147 | 1.6 | 9.7 | 0.00 | 0.91 | 0.89 | 87 | 1010.4 |
| 20260506061428 | 2 | 164 | 1.6 | 9.7 | 0.00 | 0.91 | 0.89 | 87 | 1010.5 |
| 20260506060928 | 2 | 164 | 3.2 | 9.7 | 0.00 | 0.91 | 0.89 | 87 | 1010.3 |
| 20260506060428 | 2 | 168 | 1.6 | 9.7 | 0.00 | 0.91 | 0.89 | 87 | 1010.2 |
| 20260506050927 | 3 | 162 | 1.6 | 4.8 | 0.00 | 0.91 | 0.89 | 86 | 1010.0 |
| 20260506050428 | 3 | 173 | 3.2 | 4.8 | 0.00 | 0.91 | 0.89 | 86 | 1009.9 |
| 20260506044927 | 3 | 169 | 0.0 | 6.4 | 0.00 | 0.91 | 0.89 | 86 | 1009.7 |
| 20260506044427 | 3 | 168 | 0.0 | 6.4 | 0.00 | 0.91 | 0.89 | 86 | 1009.7 |
| 20260506043927 | 3 | 168 | 3.2 | 6.4 | 0.00 | 0.91 | 0.89 | 86 | 1009.5 |
| 20260506043427 | 3 | 169 | 0.0 | 6.4 | 0.00 | 0.91 | 0.89 | 86 | 1009.6 |
| 20260506042927 | 3 | 169 | 0.0 | 6.4 | 0.00 | 0.91 | 0.89 | 87 | 1009.4 |
| 20260506042427 | 3 | 168 | 0.0 | 6.4 | 0.00 | 0.91 | 0.89 | 86 | 1009.6 |
| 20260506041927 | 3 | 168 | 0.0 | 6.4 | 0.00 | 0.91 | 0.89 | 86 | 1009.4 |
| 20260506041427 | 3 | 168 | 1.6 | 6.4 | 0.00 | 0.91 | 0.89 | 86 | 1009.5 |
| 20260506040927 | 3 | 168 | 0.0 | 6.4 | 0.00 | 0.91 | 0.89 | 86 | 1009.5 |
| 20260506040427 | 3 | 170 | 0.0 | 6.4 | 0.00 | 0.91 | 0.89 | 86 | 1009.4 |
| 20260506035927 | 3 | 170 | 0.0 | 6.4 | 0.00 | 0.91 | 0.89 | 86 | 1009.3 |
| 20260506035427 | 3 | 161 | 0.0 | 6.4 | 0.00 | 0.91 | 0.89 | 86 | 1009.3 |
| 20260506034927 | 3 | 164 | 4.8 | 6.4 | 0.00 | 0.91 | 0.89 | 86 | 1009.3 |
| 20260506034427 | 3 | 167 | 0.0 | 6.4 | 0.00 | 0.91 | 0.89 | 86 | 1009.2 |
| 20260506033927 | 3 | 167 | 0.0 | 6.4 | 0.00 | 0.91 | 0.89 | 86 | 1009.1 |
| 20260506033427 | 3 | 167 | 0.0 | 6.4 | 0.00 | 0.91 | 0.89 | 86 | 1009.1 |
| 20260506032927 | 3 | 166 | 1.6 | 6.4 | 0.00 | 0.91 | 0.89 | 86 | 1009.0 |
| 20260506032427 | 3 | 178 | 0.0 | 6.4 | 0.00 | 0.91 | 0.89 | 86 | 1009.0 |
| 20260506031926 | 3 | 172 | 3.2 | 6.4 | 0.00 | 0.91 | 0.89 | 86 | 1008.9 |
| 20260506031427 | 3 | 165 | 0.0 | 4.8 | 0.00 | 0.91 | 0.89 | 86 | 1008.9 |
| 20260506030926 | 3 | 165 | 0.0 | 4.8 | 0.00 | 0.91 | 0.89 | 86 | 1008.8 |
| 20260506030426 | 3 | 164 | 3.2 | 4.8 | 0.00 | 0.91 | 0.89 | 85 | 1008.7 |
| 20260506025926 | 3 | 166 | 1.6 | 8.0 | 0.00 | 0.91 | 0.89 | 85 | 1008.8 |
| 20260506025426 | 3 | 167 | 3.2 | 8.0 | 0.00 | 0.91 | 0.89 | 85 | 1008.7 |
| 20260506024926 | 3 | 187 | 1.6 | 8.0 | 0.00 | 0.91 | 0.89 | 85 | 1008.6 |
| 20260506024426 | 3 | 187 | 0.0 | 8.0 | 0.00 | 0.91 | 0.89 | 85 | 1008.6 |
| 20260506023926 | 3 | 151 | 0.0 | 8.0 | 0.00 | 0.91 | 0.89 | 85 | 1008.6 |
| 20260506023426 | 4 | 150 | 4.8 | 8.0 | 0.00 | 0.91 | 0.89 | 85 | 1008.5 |
| 20260506022926 | 4 | 153 | 1.6 | 8.0 | 0.00 | 0.91 | 0.89 | 85 | 1008.5 |
| 20260506022426 | 4 | 162 | 0.0 | 8.0 | 0.00 | 0.91 | 0.89 | 85 | 1008.5 |
| 20260506021926 | 4 | 162 | 4.8 | 8.0 | 0.00 | 0.91 | 0.89 | 84 | 1008.5 |
| 20260506021426 | 4 | 162 | 0.0 | 8.0 | 0.00 | 0.91 | 0.89 | 84 | 1008.4 |
| 20260506020926 | 4 | 162 | 1.6 | 8.0 | 0.00 | 0.91 | 0.89 | 84 | 1008.3 |
| 20260506020426 | 4 | 160 | 3.2 | 6.4 | 0.00 | 0.91 | 0.89 | 84 | 1008.2 |